When you browse on this site, cookies collect data to enhance your experience and personalize the content and advertising you see.
Visit our Privacy Policy to learn more. By continuing to use the site, you agree to this use of cookies and data.
  • Em Portugal
  • Lista de países
  • Para 7 dias
  • Temperatura da água
  • Mapa do tempo
  • Widgets de tempo
  • user-avatar
    Iniciar Sessão

    Previsão horária em Barra

    Hoje, 24 Fevereiro, Segunda-feira

    Tempo Temperatura Precipitação Vento Pressão Humidade
    00:00 +27°C° 0.8 mm 2 m/s 746 mmHg 94%
    01:00 +27°C° 0.8 mm 2 m/s 745 mmHg 94%
    02:00 +27°C° 1.2 mm 2 m/s 745 mmHg 94%
    03:00 +27°C° 1.2 mm 2 m/s 745 mmHg 95%
    04:00 +26°C° 0 mm 2 m/s 745 mmHg 95%
    05:00 +27°C° 0.5 mm 2 m/s 745 mmHg 94%
    06:00 +27°C° 0.5 mm 2 m/s 746 mmHg 94%
    07:00 +27°C° 0.5 mm 1 m/s 746 mmHg 94%
    08:00 +28°C° 0.4 mm 2 m/s 746 mmHg 90%
    09:00 +29°C° 0.4 mm 2 m/s 746 mmHg 86%
    10:00 +30°C° 0.4 mm 3 m/s 747 mmHg 83%
    11:00 +30°C° 0.7 mm 3 m/s 746 mmHg 80%
    12:00 +31°C° 0.7 mm 3 m/s 746 mmHg 77%
    13:00 +31°C° 0.7 mm 3 m/s 745 mmHg 75%
    14:00 +31°C° 0.3 mm 3 m/s 745 mmHg 76%
    15:00 +30°C° 0.3 mm 3 m/s 744 mmHg 77%
    16:00 +30°C° 0.3 mm 4 m/s 744 mmHg 78%
    17:00 +29°C° 0.9 mm 3 m/s 744 mmHg 83%
    18:00 +28°C° 0.9 mm 3 m/s 745 mmHg 88%
    19:00 +27°C° 0.9 mm 3 m/s 745 mmHg 93%
    20:00 +27°C° 2 mm 2 m/s 745 mmHg 93%
    21:00 +27°C° 2 mm 2 m/s 746 mmHg 93%
    22:00 +27°C° 2 mm 2 m/s 747 mmHg 94%
    23:00 +27°C° 4.6 mm 2 m/s 746 mmHg 95%

    Amanhã, 25 Fevereiro, Terça-feira

    Tempo Temperatura Precipitação Vento Pressão Humidade
    00:00 +26°C° 4.6 mm 3 m/s 746 mmHg 96%
    01:00 +26°C° 4.6 mm 3 m/s 745 mmHg 97%
    02:00 +26°C° 2.3 mm 3 m/s 745 mmHg 97%
    03:00 +26°C° 2.3 mm 2 m/s 745 mmHg 97%
    04:00 +26°C° 2.3 mm 2 m/s 745 mmHg 97%
    05:00 +26°C° 1 mm 2 m/s 746 mmHg 97%
    06:00 +26°C° 1 mm 2 m/s 746 mmHg 97%
    07:00 +26°C° 1 mm 2 m/s 746 mmHg 97%
    08:00 +26°C° 0.5 mm 1 m/s 747 mmHg 96%
    09:00 +27°C° 0.5 mm 1 m/s 747 mmHg 94%
    10:00 +25°C° 0.5 mm 0 m/s 747 mmHg 93%
    11:00 +27°C° 0.3 mm 1 m/s 747 mmHg 92%
    12:00 +27°C° 0.3 mm 1 m/s 746 mmHg 92%
    13:00 +27°C° 0.3 mm 1 m/s 746 mmHg 91%
    14:00 +27°C° 0.2 mm 1 m/s 745 mmHg 92%
    15:00 +27°C° 0.2 mm 1 m/s 745 mmHg 93%
    16:00 +27°C° 0.2 mm 1 m/s 744 mmHg 94%
    17:00 +26°C° 0.3 mm 1 m/s 745 mmHg 95%
    18:00 +26°C° 0.3 mm 1 m/s 745 mmHg 96%
    19:00 +26°C° 0.3 mm 1 m/s 745 mmHg 97%
    20:00 +26°C° 0.1 mm 1 m/s 746 mmHg 96%
    21:00 +25°C° 0.1 mm 1 m/s 746 mmHg 96%
    22:00 +25°C° 0.1 mm 2 m/s 747 mmHg 96%
    23:00 +25°C° 0 mm 1 m/s 746 mmHg 96%

    Depois de amanhã, 26 Fevereiro, Quarta-feira

    Tempo Temperatura Precipitação Vento Pressão Humidade
    00:00 +25°C° 0 mm 1 m/s 746 mmHg 96%
    01:00 +25°C° 0 mm 1 m/s 745 mmHg 96%
    02:00 +25°C° 0.1 mm 1 m/s 745 mmHg 96%
    03:00 +25°C° 0.1 mm 1 m/s 745 mmHg 96%
    04:00 +25°C° 0.1 mm 1 m/s 745 mmHg 96%
    05:00 +25°C° 0.2 mm 1 m/s 745 mmHg 95%
    06:00 +25°C° 0.2 mm 1 m/s 745 mmHg 95%
    07:00 +25°C° 0.2 mm 1 m/s 745 mmHg 94%
    08:00 +28°C° 0.2 mm 1 m/s 746 mmHg 85%
    09:00 +30°C° 0.2 mm 1 m/s 746 mmHg 76%
    10:00 +30°C° 0.2 mm 0 m/s 746 mmHg 67%
    11:00 +32°C° 0.4 mm 1 m/s 746 mmHg 68%
    12:00 +32°C° 0.4 mm 2 m/s 745 mmHg 70%
    13:00 +32°C° 0.4 mm 2 m/s 745 mmHg 71%
    14:00 +31°C° 1.1 mm 2 m/s 744 mmHg 77%
    15:00 +30°C° 1.1 mm 2 m/s 744 mmHg 84%
    16:00 +28°C° 1.1 mm 2 m/s 743 mmHg 91%
    17:00 +28°C° 1.3 mm 2 m/s 744 mmHg 92%
    18:00 +27°C° 1.3 mm 2 m/s 744 mmHg 94%
    19:00 +27°C° 1.3 mm 2 m/s 745 mmHg 95%
    20:00 +26°C° 4 mm 2 m/s 745 mmHg 96%
    21:00 +26°C° 4 mm 2 m/s 746 mmHg 97%
    22:00 +26°C° 4 mm 2 m/s 746 mmHg 97%
    23:00 +26°C° 0.9 mm 2 m/s 746 mmHg 97%

    27 Fevereiro, Quinta-feira

    Tempo Temperatura Precipitação Vento Pressão Humidade
    00:00 +26°C° 0.9 mm 2 m/s 745 mmHg 97%
    01:00 +26°C° 0.9 mm 2 m/s 745 mmHg 96%
    02:00 +26°C° 0.1 mm 2 m/s 745 mmHg 96%
    03:00 +26°C° 0.1 mm 1 m/s 744 mmHg 95%
    04:00 +26°C° 0.1 mm 1 m/s 744 mmHg 95%
    05:00 +26°C° 0 mm 1 m/s 744 mmHg 95%
    06:00 +26°C° 0 mm 2 m/s 745 mmHg 94%
    07:00 +26°C° 0 mm 2 m/s 745 mmHg 94%
    08:00 +27°C° 0 mm 2 m/s 745 mmHg 90%
    09:00 +28°C° 0 mm 1 m/s 745 mmHg 85%
    10:00 +29°C° 0 mm 1 m/s 746 mmHg 81%
    11:00 +31°C° 0.4 mm 1 m/s 745 mmHg 76%
    12:00 +32°C° 0.4 mm 1 m/s 744 mmHg 72%
    13:00 +34°C° 0.4 mm 2 m/s 744 mmHg 67%
    14:00 +32°C° 0.6 mm 2 m/s 743 mmHg 72%
    15:00 +31°C° 0.6 mm 2 m/s 743 mmHg 77%
    16:00 +30°C° 0.6 mm 2 m/s 742 mmHg 82%
    17:00 +29°C° 0.2 mm 2 m/s 743 mmHg 85%
    18:00 +28°C° 0.2 mm 1 m/s 743 mmHg 88%
    19:00 +28°C° 0.2 mm 1 m/s 743 mmHg 91%
    20:00 +27°C° 0.1 mm 1 m/s 744 mmHg 91%
    21:00 +27°C° 0.1 mm 1 m/s 745 mmHg 91%
    22:00 +27°C° 0.1 mm 1 m/s 745 mmHg 91%
    23:00 +27°C° 0 mm 1 m/s 745 mmHg 92%

    28 Fevereiro, Sexta-feira

    Tempo Temperatura Precipitação Vento Pressão Humidade
    00:00 +27°C° 0 mm 1 m/s 744 mmHg 93%
    01:00 +26°C° 0 mm 1 m/s 744 mmHg 94%
    02:00 +26°C° 0 mm 1 m/s 743 mmHg 94%
    03:00 +26°C° 0 mm 1 m/s 743 mmHg 94%
    04:00 +26°C° 0 mm 1 m/s 743 mmHg 95%
    05:00 +26°C° 0.1 mm 1 m/s 743 mmHg 94%
    06:00 +26°C° 0.1 mm 1 m/s 744 mmHg 93%
    07:00 +27°C° 0.1 mm 1 m/s 744 mmHg 93%
    08:00 +28°C° 0.2 mm 1 m/s 744 mmHg 86%
    09:00 +28°C° 0.2 mm 0 m/s 744 mmHg 79%
    10:00 +30°C° 0.2 mm 0 m/s 744 mmHg 72%
    11:00 +32°C° 0 mm 1 m/s 744 mmHg 70%
    12:00 +33°C° 0 mm 1 m/s 743 mmHg 68%
    13:00 +34°C° 0 mm 2 m/s 743 mmHg 65%
    14:00 +32°C° 0.6 mm 2 m/s 742 mmHg 70%
    15:00 +31°C° 0.6 mm 2 m/s 742 mmHg 76%
    16:00 +31°C° 0.6 mm 3 m/s 742 mmHg 81%
    17:00 +30°C° 1.8 mm 2 m/s 742 mmHg 84%
    18:00 +29°C° 1.8 mm 2 m/s 743 mmHg 87%
    19:00 +28°C° 1.8 mm 1 m/s 743 mmHg 91%
    20:00 +27°C° 1.1 mm 1 m/s 743 mmHg 91%
    21:00 +27°C° 1.1 mm 1 m/s 744 mmHg 91%
    22:00 +25°C° 1.1 mm 0 m/s 744 mmHg 92%
    23:00 +26°C° 0.2 mm 1 m/s 744 mmHg 92%

    29 Fevereiro, Sábado

    Tempo Temperatura Precipitação Vento Pressão Humidade
    00:00 +26°C° 0.2 mm 1 m/s 744 mmHg 93%
    01:00 +26°C° 0.2 mm 1 m/s 743 mmHg 93%
    02:00 +26°C° 0.1 mm 1 m/s 743 mmHg 94%
    03:00 +25°C° 0.1 mm 1 m/s 743 mmHg 94%
    04:00 +25°C° 0.1 mm 1 m/s 743 mmHg 94%
    05:00 +25°C° 0 mm 1 m/s 743 mmHg 93%
    06:00 +26°C° 0 mm 2 m/s 744 mmHg 93%
    07:00 +26°C° 0 mm 2 m/s 744 mmHg 93%
    08:00 +28°C° 0.1 mm 2 m/s 744 mmHg 86%
    09:00 +29°C° 0.1 mm 2 m/s 745 mmHg 79%
    10:00 +31°C° 0.1 mm 2 m/s 745 mmHg 72%
    11:00 +31°C° 0.6 mm 3 m/s 744 mmHg 73%
    12:00 +31°C° 0.6 mm 3 m/s 744 mmHg 75%
    13:00 +32°C° 0.6 mm 4 m/s 744 mmHg 76%
    14:00 +32°C° 0.2 mm 4 m/s 743 mmHg 72%
    15:00 +33°C° 0.2 mm 4 m/s 743 mmHg 67%
    16:00 +33°C° 0.2 mm 4 m/s 742 mmHg 63%
    17:00 +30°C° 0.4 mm 3 m/s 743 mmHg 72%
    18:00 +29°C° 0.4 mm 3 m/s 743 mmHg 80%
    19:00 +27°C° 0.4 mm 2 m/s 743 mmHg 89%
    20:00 +26°C° 0.5 mm 2 m/s 744 mmHg 90%
    21:00 +26°C° 0.5 mm 2 m/s 744 mmHg 91%
    22:00 +26°C° 0.5 mm 2 m/s 745 mmHg 92%
    23:00 +25°C° 0.3 mm 2 m/s 744 mmHg 92%
    Mostrar mais